星链-32301 (STARLINK-32301)

导读

STARLINK-32301是美国太空探索技术公司(SpaceX)于2024年10月26日发射的星链(Starlink)低轨互联网卫星,属于星链全球卫星互联网星座的组成部分。星链项目旨在为全球提供高速、低延迟的宽带互联网服务,尤其覆盖偏远和网络基础设施薄弱区域,该卫星入轨后将与其他星链卫星协同,推进星座组网,进一步完善全球卫星互联网覆盖能力。

Basic Information
目录编号:
61664
目录名称:
STARLINK-32301
国际标识:
2024-193D
轨道中心:
EARTH
卫星名称:
星链-32301
卫星全名:
星链-32301 (STARLINK-32301)
卫星状态:
在轨 (已飞行678 天)
发射日期:
2024-10-26 UTC
国别 :
美国 (US)
星等 :
--
Orbit Information
数据来源 国际轨道数据
星历时间: 2026-09-02T02:57:26+0800
2天前
查看轨道信息
半长轴: 6848.823km
偏心率: 0.0001085
轨道倾角: 53.161°
近地点辐角 92.252°
升交点赤经 351.960°
平近点角 267.861°
近地点: 469.942km
远地点: 471.43km
周期: 94.012分钟
每日圈数: 15.317182
Detailed Information
固有亮度:
5
最大亮度:
2.5
卫星平台:
Starlink V1.0
覆盖范围:
全球
运营商:
太空探索技术公司
运营商所在国:
美国
制造商(研发单位):
太空探索技术公司
制造商所在国:
美国
使用方式:
暂无
Satellite Introduction
Starlink 计划是 SpaceX 推出的全球卫星互联网项目,通过发射低轨道卫星,为全球尤其是偏远地区提供高速、低延迟的互联网服务。自 2019 年起,Starlink 已部署数千颗卫星,旨在缩小全球数字鸿沟,推动互联网普及。该项目还为军事、航空等行业提供通信支持,带来广泛经济效益。
2D Orbit Map
3D Orbit Map
Orbit Altitude Analysis Chart
Orbit Inclination Analysis Chart
Orbit Comprehensive Analysis Chart
View Comprehensive Chart
Conjunction Data List
Event ID Objects TCA Miss Dist (km) Collision Risk Probability Collision Risk Index (CRI) Action
CDM_260904-201006-166406-914422
2026-09-04T
20:10:55+0000
2.438 km
极远距离
1.640621E-6 低风险 0.39
CDM_260903-110606-166406-801621
2026-09-03T
11:06:23+0000
2.922 km
极远距离
1.357927E-6 低风险 0.38
CDM_260903-142506-166406-861921
2026-09-03T
14:25:01+0000
2.951 km
极远距离
1.209955E-6 低风险 0.37
CDM_260905-032406-166406-773421
2026-09-05T
03:24:32+0000
2.692 km
极远距离
1.018297E-6 低风险 0.35
CDM_260904-102105-802006-166423
NESS (58020)
2026-09-04T
10:21:04+0000
2.665 km
极远距离
9.20632E-7 极低风险 0.34
CDM_260827-180305-340106-166421
2026-08-27T
18:03:39+0000
2.691 km
极远距离
9.138525E-7 极低风险 0.34
CDM_260904-193706-166406-759321
2026-09-04T
19:37:27+0000
2.972 km
极远距离
8.542304E-7 极低风险 0.34
CDM_260903-041800-375706-166422
2026-09-03T
04:18:17+0000
2.684 km
极远距离
6.415416E-7 极低风险 0.31